Location: Dana
(41.8364°N, 106.7042°W)
Time: 01:38:34
(UTC+00:00)

Altair - Pass Details

Date: 19 May 2026
Orbit: 1501 x 1682 km, 47.2° (Epoch: 6 June)

Event Time Altitude Azimuth Distance (km) Brightness Sun altitude
Rises 09:00:14 0° 195° (SSW) 4,741 - -22.7°
Reaches altitude 10° 09:03:48 10° 184° (S) 3,788 - -22.4°
Exits shadow 09:06:56 20° 169° (S) 3,106 8.7 -22.1°
Maximum altitude 09:11:39 29° 129° (SE) 2,658 8.6 -21.6°
Drops below altitude 10° 09:19:41 10° 75° (ENE) 3,910 10.3 -20.8°
Sets 09:23:25 0° 65° (ENE) 4,918 11.2 -20.4°
